Flag for France Weather past 2 weeks in Nantes, France

Now
66 °F

Passing clouds.


Feels Like: 66 °F
Forecast: 54 / 79 °F
Wind: 8 mph from Northeast

Location: Nantes Airport

Current Time: Jul 31, 2015 at 11:37:33 AM

Latest Report: Jul 31, 2015 at 11:00 AM


Visibility: N/A

Pressure: 30.01 "Hg

Humidity: 49%

Dew point: 46 °F

Location of NantesLocation

Historic Weather in Nantes — Graph

°F

Nantes temperature yesterday

Maximum temperature yesterday: 73 °F (at 5:30 PM)
Minimum temperature yesterday: 48 °F (at 5:00 AM)
Average temperature yesterday: 61 °F

Past Weeks' High & Low Weather Summary

 TemperatureHumidityPressure
High95 °F (Jul 16, 2:00 PM)100% (Jul 17, 5:00 AM)30.15 "Hg (Jul 17, 5:00 AM)
Low48 °F (Jul 29, 6:30 AM)26% (Jul 16, 2:00 PM)29.71 "Hg (Jul 24, 4:00 PM)
Average66 °F73%29.98 "Hg
* Reported Jul 16 10:00 AM — Jul 31 10:30 AM, Nantes, Weather by CustomWeather, © 2015

Note: Actual official high and low records may vary slightly from our data, if they occured in-between our weather recording intervals... More about our weather records

Advertising

Nantes weather history for previous 24 hours

 ConditionsComfort  
Time TempWeatherWind HumidityBarometerVisibility
10:30 AM
Fri, Jul 31
63 °FPassing clouds.8 mph59%30.04 "HgN/A
10:00 AM61 °FPassing clouds.8 mph59%30.04 "HgN/A
9:30 AM59 °FPassing clouds.12 mph63%30.04 "HgN/A
9:00 AM57 °FPassing clouds.9 mph63%30.04 "HgN/A
8:30 AM54 °FPassing clouds.9 mph72%30.04 "HgN/A
8:00 AM55 °FPassing clouds.8 mph67%30.04 "HgN/A
7:30 AM54 °FPassing clouds.7 mph72%30.04 "HgN/A
7:00 AM54 °FPassing clouds.6 mph72%30.04 "HgN/A
6:30 AM54 °FPassing clouds.7 mph72%30.04 "HgN/A
6:00 AM54 °FClear.8 mph72%30.04 "Hg10 mi
5:30 AM55 °FPassing clouds.8 mph67%30.04 "HgN/A
5:00 AM55 °FPassing clouds.7 mph67%30.07 "HgN/A
4:30 AM55 °FPassing clouds.6 mph67%30.07 "HgN/A
4:00 AM54 °FPassing clouds.5 mph72%30.07 "HgN/A
3:30 AM54 °FPassing clouds.5 mph72%30.09 "HgN/A
3:00 AM55 °FPassing clouds.6 mph67%30.09 "HgN/A
2:30 AM55 °FPassing clouds.6 mph67%30.09 "HgN/A
2:00 AM55 °FPassing clouds.7 mph67%30.09 "HgN/A
1:30 AM57 °FPassing clouds.7 mph67%30.09 "HgN/A
1:00 AM57 °FPassing clouds.8 mph67%30.09 "HgN/A
12:30 AM59 °FPassing clouds.6 mph63%30.09 "HgN/A
12:00 AM61 °FPassing clouds.7 mph55%30.09 "HgN/A
11:30 PM
Thu, Jul 30
61 °FPassing clouds.7 mph55%30.09 "HgN/A
11:00 PM63 °FPassing clouds.9 mph56%30.09 "HgN/A
10:30 PM63 °FPassing clouds.6 mph52%30.09 "HgN/A
10:00 PM64 °FPassing clouds.5 mph49%30.09 "HgN/A
9:30 PM64 °FPassing clouds.5 mph46%30.07 "HgN/A
9:00 PM68 °FPassing clouds.6 mph43%30.07 "HgN/A
8:30 PM70 °FPassing clouds.6 mph40%30.07 "HgN/A
8:00 PM70 °FPassing clouds.9 mph38%30.07 "HgN/A
7:30 PM72 °FPassing clouds.7 mph36%30.07 "HgN/A
7:00 PM72 °FPassing clouds.8 mph38%30.07 "HgN/A
6:46 PM70 °FPassing clouds.9 mph38%30.07 "HgN/A
6:00 PM72 °FPassing clouds.6 mph38%30.09 "HgN/A
5:30 PM73 °FPassing clouds.8 mph36%30.09 "HgN/A
5:00 PM72 °FPassing clouds.7 mph38%30.09 "HgN/A
4:30 PM70 °FPassing clouds.6 mph38%30.09 "HgN/A
4:00 PM70 °FPassing clouds.7 mph40%30.09 "HgN/A
3:30 PM70 °FPassing clouds.7 mph40%30.09 "HgN/A
3:00 PM68 °FPassing clouds.7 mph46%30.09 "HgN/A
2:30 PM68 °FPassing clouds.6 mph43%30.12 "HgN/A
2:00 PM68 °FSunny.5 mph43%30.12 "Hg10 mi
1:30 PM66 °FPassing clouds.6 mph46%30.12 "HgN/A
1:00 PM68 °FScattered clouds.8 mph46%30.12 "HgN/A
12:30 PM66 °FScattered clouds.6 mph49%30.12 "HgN/A
12:00 PM66 °FScattered clouds.6 mph49%30.12 "HgN/A
11:30 AM64 °FScattered clouds.7 mph52%30.12 "HgN/A
11:00 AM63 °FPassing clouds.8 mph56%30.12 "HgN/A
Weather by CustomWeather, © 2015

See weather overviewHow to use our weather pages